sat.trackr.live / text

‹ back to catalog

MAUVE

NORAD 66756 · 2025-276CU

PAYLOAD ACTIVE UNKNOWN

§ Identity

Operator
Country
HUN
Launch date
2025-11-28
Launch site
AFWTR
Launch vehicle
Mass (kg)
RCS (m²)

External: N2YO · Heavens-Above · Gunter

§ Orbital elements

Epoch: 2026-05-25T03:47:47.858784Z

Period
94.72 min
Inclination
97.4210°
Eccentricity
0.0002852
Mean motion
15.20296363 rev/d
Perigee alt
503.0 km
Apogee alt
506.9 km
Semi-major
6,883.1 km
B*
3.4857e-4
RAAN
219.2541°
Arg perigee
67.7413°
Mean anomaly
292.4124°
Rev number
2,693

§ Raw data

MAUVE1 66756U 25276CU  26145.15819281  .00007507  00000+0  34857-3 0  99932 66756  97.4210 219.2541 0002852  67.7413 292.4124 15.20296363 26935

JSON: /api/v1/satellites/66756 · /tle

For live sub-satellite position, see the globe view (requires WebGL).

§ Visibility from observer

Set your observer location to see the next 7 days of passes ≥ 10°. The values pass through the URL so the page stays shareable.

No JS? Fill the form by hand. The geolocation button needs JavaScript.

§ Radio — SatNOGS DB

ModeDescriptionDownlinkUplink
FM S-band telemetry 2.250 GHz
FM Telemetry 401.750 MHz

2 transmitters · refreshed weekly from db.satnogs.org